Weather History for Valparaiso, FL

Change the Weather History Date:

Saturday, April 12, 2014

  Actual Average Record
Temperature  
Mean Temperature 64 °F -  
Max Temperature 77 °F 75 °F 86 °F (1999)
Min Temperature 51 °F 51 °F 37 °F (1960)
Degree Days  
Heating Degree Days 1    
Growing Degree Days 14 (Base 50)    
Moisture  
Dew Point 58 °F    
Average Humidity 82    
Maximum Humidity 100    
Minimum Humidity 48    
Precipitation  
Precipitation 0.00 in - - ()
Sea Level Pressure  
Sea Level Pressure 30.16 in    
Wind  
Wind Speed 4 mph (ESE)    
Max Wind Speed 13 mph    
Max Gust Speed -    
Visibility 7 miles    
Events Fog    
Averages and records for this station are not official NWS values.
T = Trace of Precipitation, MM = Missing Value Source: NWS Daily Summary

Daily Weather History Graph

Daily Weather History Graph

Search for Another Location

Airport:

Trip Planner

Search our weather history database for the weather conditions in past years. The results will help you decide how hot, cold, wet, or windy it might be!

Date:

Astronomy

Apr. 12, 2014 Rise Set
Actual Time 6:22 AM CDT 7:11 PM CDT
Civil Twilight 5:57 AM CDT 7:36 PM CDT
Nautical Twilight 5:28 AM CDT 8:05 PM CDT
Astronomical Twilight 4:59 AM CDT 8:35 PM CDT
Moon 4:58 PM CDT (4/12) 4:37 AM CDT (4/12)
Length of Visible Light 13h 38m
Length of Day
12h 49m
Waxing Gibbous, 93% of the Moon is Illuminated
Apr 12
Waxing Gibbous
Apr 15
Full
Apr 22
Last Quarter
Apr 29
New
May 6
First Quarter

Hourly Weather History & Observations

Time (CDT) Temp. Dew Point Humidity Pressure Visibility Wind Dir Wind Speed Gust Speed Precip Events Conditions
12:55 AM 56.1 °F 54.9 °F 96% 30.18 in 10.0 mi North 2.3 mph - N/A   Clear
1:56 AM 54.7 °F 53.4 °F 96% 30.17 in 10.0 mi Calm Calm - N/A   Partly Cloudy
2:27 AM 53.6 °F 53.6 °F 100% 30.15 in 3.0 mi North 2.3 mph - N/A   Partly Cloudy
2:55 AM 53.2 °F 53.1 °F 99% 30.16 in 2.0 mi North 2.3 mph - N/A   Partly Cloudy
3:25 AM 53.6 °F 51.8 °F 94% 30.14 in 0.2 mi North 1.2 mph - N/A Fog Fog
3:55 AM 53.4 °F 53.4 °F 100% 30.14 in 0.2 mi North 3.5 mph - N/A Fog Fog
4:59 AM 54.3 °F 54.3 °F 100% 30.15 in 0.2 mi North 3.5 mph - N/A   Mostly Cloudy
5:43 AM 51.8 °F 51.8 °F 100% 30.17 in 0.8 mi Calm Calm - N/A   Mostly Cloudy
5:56 AM 52.5 °F 52.5 °F 100% 30.19 in 1.0 mi NNE 1.2 mph - N/A   Partly Cloudy
6:55 AM 53.2 °F 53.2 °F 100% 30.19 in 2.5 mi NE 1.2 mph - N/A   Partly Cloudy
7:05 AM 53.6 °F 53.6 °F 100% 30.18 in 3.0 mi Variable 1.2 mph - N/A   Partly Cloudy
7:55 AM 59.9 °F 59.9 °F 100% 30.22 in 10.0 mi East 5.8 mph - N/A   Partly Cloudy
8:58 AM 64.9 °F 64.6 °F 99% 30.22 in 10.0 mi East 6.9 mph - N/A   Partly Cloudy
9:55 AM 72.1 °F 57.0 °F 59% 30.23 in 10.0 mi ESE 6.9 mph - N/A   Partly Cloudy
10:56 AM 74.5 °F 55.0 °F 51% 30.24 in 10.0 mi SE 9.2 mph - N/A   Clear
11:55 AM 75.7 °F 57.4 °F 53% 30.22 in 10.0 mi SSE 10.4 mph - N/A   Clear
12:55 PM 77.4 °F 57.4 °F 50% 30.19 in 10.0 mi SSE 6.9 mph - N/A   Partly Cloudy
1:58 PM 77.0 °F 56.7 °F 49% 30.19 in 10.0 mi SSE 12.7 mph - N/A   Partly Cloudy
2:55 PM 76.8 °F 55.9 °F 48% 30.16 in 10.0 mi South 10.4 mph - N/A   Partly Cloudy
3:55 PM 77.4 °F 56.7 °F 49% 30.13 in 10.0 mi South 9.2 mph - N/A   Partly Cloudy
4:55 PM 76.1 °F 56.5 °F 50% 30.13 in 10.0 mi South 8.1 mph - N/A   Partly Cloudy
5:55 PM 73.8 °F 59.0 °F 60% 30.13 in 10.0 mi South 9.2 mph - N/A   Partly Cloudy
6:56 PM 71.1 °F 60.3 °F 69% 30.12 in 10.0 mi SSE 5.8 mph - N/A   Scattered Clouds
7:55 PM 68.9 °F 61.9 °F 78% 30.13 in 10.0 mi South 3.5 mph - N/A   Partly Cloudy
8:57 PM 67.5 °F 62.6 °F 84% 30.13 in 10.0 mi ESE 2.3 mph - N/A   Partly Cloudy
9:55 PM 66.2 °F 63.5 °F 91% 30.14 in 10.0 mi ESE 3.5 mph - N/A   Clear
10:55 PM 65.7 °F 65.3 °F 99% 30.13 in 10.0 mi SE 3.5 mph - N/A   Scattered Clouds
11:12 PM 66.2 °F 66.2 °F 100% 30.11 in 10.0 mi SSE 4.6 mph - N/A   Mostly Cloudy
11:20 PM 66.2 °F 66.2 °F 100% 30.11 in 10.0 mi SE 4.6 mph - N/A   Mostly Cloudy
11:56 PM 66.6 °F 66.2 °F 99% 30.14 in 10.0 mi SSE 5.8 mph - N/A   Mostly Cloudy